Погода Андрюшкино

Погода Андрюшкино : погода сейчас, прогноз погоды и архив. Всё, что Вы хотите узнать о погоде Андрюшкино!

Поиск расширенной информации на нашем сайте:

Полезная информация: Смотрите подробности профнастил ростов у нас.

Другие новости

Новости СМИ2

Главная страница сайта

Новости сайта

03.07.2017

Напоминаем, что на нашем специализированном сайте Метеоцентр.Азия вы можете получить высокодетализированные автоматические прогнозы погоды по пунктам России, СНГ и мира в авиационном формате (включающие направление и скорость ветра, видимость, явления погоды, количество и форму облачности, нижнюю и верхнюю границу облачности).

Рекомендуем: Правила обследования зданий и сооружений.

Погода Андрюшкино - сегодня

Время (UTC), дата Ветер
(°,м/с) 
Видим.   Явления Облачность Т
(°С)
Тd
(°С)
f(%) Тe
(°С)
Pmin
(гПа)
dP
(гПа)
Po
(мм)
O2
(г/м3)
Тmin Tmax R s Состояние
почвы
00 18.05.18 010 (С) 20000 м    9/0 средняя 
[Ac As]
+0.2 -0.6 94 -2  1009.5  0.9  756  304           
03 18.05.18 010 (С) 20000 м    10/0 средняя 
[Ac As]
+0.5 -0.6 92 -1  1010.4  0.9  756  304           
06 18.05.18 360 (С) 20000 м    10/0 средняя 
[Ac As]
+0.5 -0.3 94 -1  1011.6  1.2  757  305           
12 18.05.18 010 (С) 20000 м    8/0 средняя, верхняя 
[Ac As|Ci fib]
-1.9 -2.4 96 -3  1013.7  1.2  759  308           
15 18.05.18 010 (С) 20000 м    10/3 200 м средняя 
[St|Ac As]
-1.6 -2.1 96 -4  1014.3  0.6  759  308           
18 18.05.18 350 (С) 20000 м  {снег}  9/3 300 м средняя 
[St|Ac As]
-2 -2.6 96 -3  1014.7  0.3  759  309           
21 18.05.18 020 (С) 20000 м    10/8 200 м средняя 
[St|As op]
-3 -3.4 97 -5  1015.4  0.7  760  310  -30    0.0  79  равномерный
сухой снег
100% 
00 19.05.18 040 (СВ) 20000 м    9/6 270 м средняя 
[St|Ac As]
-2.1 -2.7 96 -5  1015.2  -0.2  760  309           
09 19.05.18 020 (С) 20000 м    10/6 330 м средняя 
[St|As op]
-1.6 -2.4 94 -3  1015.2  0.1  760  308    +0.2  0.0     
12 19.05.18 040 (СВ) 20000 м    10/8 330 м средняя 
[St|As op]
-1.6 -1.8 99 -1  1015.7  0.5  760  308           
15 19.05.18 340 (С) 20000 м    10/10 210 м 
[St]
-1.8 -2.3 96 -1  1015.7  760  309           
18 19.05.18 тихо ()   20000 м    10/8 300 м средняя 
[St|As op]
-2 -2.3 98 -2  1016.1  0.4  761  309           
21 19.05.18 010 (С) 20000 м    6/4 300 м верхняя 
[St|Ci fib]
+1 +0.2 94 +2  1016.4  0.4  761  305  -2.4      79  неравномерный
мокрый или
старый снег
100% 
00 20.05.18 020 (С) 20000 м    6/3 300 м средняя, верхняя 
[St|Ac trans|Ci fib]
+0.5 -0.1 96 +1  1016.2  -0.2  761  306           
03 20.05.18 020 (С) 20000 м    8/8 210 м 
[St]
+0.1   1015.7  -0.5  760             
06 20.05.18 040 (СВ) 20000 м    10/10 270 м 
[St]
+0.2 -0.4 96 -1  1015  -0.7  760  306           
09 20.05.18 040 (СВ) 20000 м    10/10 210 м 
[St]
-0.3 -0.9 96 -2  1014.5  -0.5  759  306    +1.4       
15 20.05.18 050 (СВ) 0500 м  туман  ?/?  
-0.2 -0.2 100 -3  1012.5  -1.2  758  306           
18 20.05.18 030 (СВ) 0500 м  туман  ?/?  
+0 +0 100 -2  1011.8  -0.7  757  305           
03 21.05.18 040 (СВ) 20000 м    9/9 210 м 
[St]
-0.5 -1.1 96 -2  1010.6  -0.3  756  305           
09 21.05.18 030 (СВ) 20000 м    8/8 200 м 
[St]
-2.5 -3.1 96 -6  1010.6  -0.1  756  308  -2.8  +0.5       
12 22.05.18 010 (С) 0500 м  туман{снег}  ?/?  
-1.5 -1.4 100 -3  1011.6  0.5  757  307           
21 22.05.18 320 (СЗ) 20000 м    10/10 210 м 
[St]
-3.1 -3.8 95 -4  1012.6  0.2  758  309  -3.2    0.0    неравномерный
мокрый или
старый снег
100% 
00 23.05.18 350 (С) 20000 м    10/10 270 м 
[St]
-2.2 -3.1 94 -4  1012.8  0.3  758  308           
03 23.05.18 330 (СЗ) 20000 м    10/10 210 м 
[St]
-1.5 -2.1 96 -2  1013  0.2  758  307           
Время (UTC), дата Ветер
(°,м/с) 
Видим.   Явления Облачность Т
(°С)
Тd
(°С)
f(%) Тe
(°С)
Pmin
(гПа)
dP
(гПа)
Po
(мм)
O2
(г/м3)
Тmin Tmax R s Состояние
почвы

Для получения пояснительной информации подведите курсор к названию столбца.

ПОГОДА Андрюшкино - архив

Всё, что Вы хотите узнать о погоде Андрюшкино - удобно и подробно!

Выберите нужную дату (начиная с 1 января 2015* года) и нажмите кнопку "Найти".
Будут отображены архивные сводки погоды по пункту Андрюшкино, начиная с указанной даты.


Отображать данные в формате CSV (для использования в таблицах Excel)


Внимание! Наш архив погоды предназначен исключительно для личного некоммерческого использования в познавательных целях. Если Вам необходимы официальные справки о состоянии погоды (для производственных, юридических, коммерческих и т.п. целей), обращайтесь в органы Росгидромета.

*Примечание: данная дата относится к архиву по метеостанциям СССР (Россия, СНГ, Балтия).
Архив по метеостанциям Зарубежной Европы и Азии (кроме Китая) хранится 10 дней, по другим регионам земного шара (Китай, Африка, Америка, Австралия, Океания) - 1 день.

Андрюшкино - район местоположения метеостанции


Название, широта, долгота, высота метеостанции:
Андрюшкино 69.2°ш. 154.4°д. 46 м над ур. моря [Российская Федерация]

Дополнительная информация

В oтличие oт бoльшинства пoгoдных сайтoв мы публикуем пoдрoбную метеoинфoрмацию в детальнoм прoфессиoнальнoм фoрмате.

Характеристики температуры и влажнoсти вoздуха измеряются на высoте 2 м в тени вдали oт зданий и деревьев.
Скoрoсть ветра измеряется на высoте 10 м (на урoвне рoста челoвека скoрoсть ветра ниже в 1.5-2 раза). Если метеoстанция нахoдится в гoрoде или в лесу, тo скoрoсть ветра занижена на 2-4 м/с пo сравнению с oткрытым местoм. Скoрoсть ветра над акватoриями крупных рек и oзёр, а также на вершинах хoлмoв на 2-5 м/с выше, чем в oбычных услoвиях.
Атмoсфернoе давление в разных тoчках местнoсти мoжет значительнo oтличаться oт давления на метеoстанции, в зависимoсти oт услoвий рельефа (при пoдъёме на 10 м давление пoнижается примернo на 1 мм рт.ст.).